Weather History for Honolulu, HI

Change the Weather History Date:

Thursday, October 31, 2013

  Actual Average Record
Temperature  
Mean Temperature 81 °F 79 °F  
Max Temperature 89 °F 85 °F 89 °F (1968)
Min Temperature 73 °F 73 °F 64 °F (1975)
Degree Days  
Heating Degree Days 0 0  
Month to date heating degree days 0 0  
Since 1 July heating degree days 0 0  
Cooling Degree Days 16 14  
Month to date cooling degree days 438 467  
Year to date cooling degree days 3775 3946  
Growing Degree Days 30 (Base 50)    
Moisture  
Dew Point 66 °F    
Average Humidity 65    
Maximum Humidity 87    
Minimum Humidity 43    
Precipitation  
Precipitation 0.00 in 0.08 in 2.64 in (1978)
Month to date precipitation 0.18 1.84  
Year to date precipitation 10.59 11.44  
Snow  
Snow 0.00 in - - ()
Month to date snowfall 0.0  
Since 1 July snowfall 0.0  
Since 1 September snowfall 0.0  
Snow Depth 0.00 in    
Sea Level Pressure  
Sea Level Pressure 30.06 in    
Wind  
Wind Speed 9 mph (NE)    
Max Wind Speed 21 mph    
Max Gust Speed 26 mph    
Visibility 10 miles    
Events      
T = Trace of Precipitation, MM = Missing Value Source: NWS Daily Summary

Daily Weather History Graph

Daily Weather History Graph

Search for Another Location

Airport:

Trip Planner

Search our weather history database for the weather conditions in past years. The results will help you decide how hot, cold, wet, or windy it might be!

Date:

Astronomy

Oct. 31, 2013 Rise Set
Actual Time 6:34 AM HST 5:55 PM HST
Civil Twilight 6:11 AM HST 6:18 PM HST
Nautical Twilight 5:45 AM HST 6:45 PM HST
Astronomical Twilight 5:19 AM HST 7:11 PM HST
Moon 3:55 AM HST (10/31) 4:04 PM HST (10/31)
Length of Visible Light 12h 07m
Length of Day
11h 21m
Waning Crescent, 8% of the Moon is Illuminated
Oct 31
Waning Crescent
Nov 3
New
Nov 9
First Quarter
Nov 17
Full
Nov 25
Last Quarter

Hourly Weather History & Observations

Time (HST) Temp. Heat Index Dew Point Humidity Pressure Visibility Wind Dir Wind Speed Gust Speed Precip Events Conditions
12:53 AM 75.9 °F - 68.0 °F 76% 30.08 in 10.0 mi NNW 4.6 mph - N/A   Partly Cloudy
1:53 AM 73.9 °F - 68.0 °F 82% 30.06 in 10.0 mi NNW 4.6 mph - N/A   Scattered Clouds
2:53 AM 73.0 °F - 69.1 °F 87% 30.04 in 10.0 mi NNE 3.5 mph - N/A   Scattered Clouds
3:53 AM 73.9 °F - 68.0 °F 82% 30.04 in 10.0 mi NE 4.6 mph - N/A   Partly Cloudy
4:53 AM 73.0 °F - 68.0 °F 84% 30.04 in 10.0 mi North 3.5 mph - N/A   Scattered Clouds
5:53 AM 73.0 °F - 68.0 °F 84% 30.04 in 10.0 mi NNW 5.8 mph - N/A   Partly Cloudy
6:53 AM 73.9 °F - 68.0 °F 82% 30.07 in 10.0 mi NW 4.6 mph - N/A   Partly Cloudy
7:53 AM 77.0 °F - 68.0 °F 74% 30.07 in 10.0 mi North 3.5 mph - N/A   Scattered Clouds
8:53 AM 81.0 °F 83.3 °F 66.9 °F 62% 30.10 in 10.0 mi NE 6.9 mph - N/A   Scattered Clouds
9:53 AM 84.0 °F 86.3 °F 66.0 °F 55% 30.10 in 10.0 mi ENE 12.7 mph 20.7 mph N/A   Scattered Clouds
10:53 AM 84.9 °F 87.1 °F 66.0 °F 53% 30.09 in 10.0 mi ENE 11.5 mph - N/A   Mostly Cloudy
11:53 AM 87.1 °F 89.2 °F 66.0 °F 49% 30.07 in 10.0 mi ENE 15.0 mph - N/A   Mostly Cloudy
12:53 PM 87.1 °F 88.9 °F 64.9 °F 48% 30.04 in 10.0 mi East 16.1 mph 23.0 mph N/A   Scattered Clouds
1:53 PM 88.0 °F 88.7 °F 63.0 °F 43% 30.02 in 10.0 mi East 20.7 mph - N/A   Scattered Clouds
2:53 PM 84.9 °F 86.6 °F 64.9 °F 51% 30.02 in 10.0 mi NE 16.1 mph 23.0 mph N/A   Mostly Cloudy
3:53 PM 84.0 °F 86.3 °F 66.0 °F 55% 30.02 in 10.0 mi East 18.4 mph - N/A   Mostly Cloudy
4:53 PM 82.0 °F 84.1 °F 66.0 °F 58% 30.03 in 10.0 mi NE 10.4 mph - N/A   Mostly Cloudy
5:53 PM 80.1 °F 82.1 °F 66.0 °F 62% 30.04 in 10.0 mi ENE 10.4 mph - N/A   Scattered Clouds
6:53 PM 80.1 °F 82.1 °F 66.0 °F 62% 30.06 in 10.0 mi NNE 9.2 mph 17.3 mph N/A   Scattered Clouds
7:53 PM 79.0 °F - 66.0 °F 64% 30.08 in 10.0 mi NE 9.2 mph - N/A   Scattered Clouds
8:53 PM 79.0 °F - 66.0 °F 64% 30.10 in 10.0 mi NNE 6.9 mph - N/A   Scattered Clouds
9:53 PM 79.0 °F - 66.0 °F 64% 30.10 in 10.0 mi NE 11.5 mph 19.6 mph N/A   Scattered Clouds
10:53 PM 78.1 °F - 66.0 °F 66% 30.09 in 10.0 mi NE 6.9 mph - N/A   Scattered Clouds
11:53 PM 78.1 °F - 66.0 °F 66% 30.09 in 10.0 mi NE 11.5 mph - N/A   Scattered Clouds